www.pogodaiklimat.ru

Погода и климат >> Архив погоды >> Россия >> Сахалинская область >> Южно-Курильск


АРХИВ ПОГОДЫ в Южно-Курильске

Время (UTC), дата Ветер
(напр.,м/с)
 
Видим.   Явления Облачность Т
(С)
Тd
(С)
f
(%)
Тe
(С)
Тes
(С)
Комфортность P
(гПа)
Po
(гПа)
Тmin
(С)
Tmax
(С)
R
(мм)
R24
(мм)
S
(см)
06 13.06 В 3-4
{6}
4000 м дымка 10/10 300 м
[Cb cap]
+8.4 +6.9 90 +6 +6 по сезону 1012.6 1007.0
09 13.06 В 3-4
{5}
4000 м дымка 10/10 300 м
[Cb cap]
+7.7 +6.4 91 +5 +5 по сезону 1013.5 1007.9 +9.4
12 13.06 ЮВ 3-4
{5}
4000 м дымка 10/10 300 м
[Cb cap]
+7.4 +6.3 93 +4 +4 по сезону 1015.5 1009.8
15 13.06 Ю 5-9
{9}
4000 м дымка 10/10 300 м
[Cb cap]
+7.2 +6.6 96 +3 +3 прохладно 1015.1 1009.5
18 13.06 Ю 5-8
{9}
4000 м дымка 10/10 300 м
[Cb cap]
+7.9 +7.3 96 +4 +4 по сезону 1015.3 1009.7
21 13.06 Ю 7-9
{10}
4000 м дымка 10/10 200 м
[Cb cap]
+8.6 +7.9 95 +4 +4 по сезону 1015.4 1009.8 +7.1
00 14.06 Ю 7-10
{12}
2000 м дымка 10/10 300 м
[St]
+9.2 +8.6 96 +5 +5 по сезону 1014.7 1009.1
03 14.06 Ю 5-8
{11}
4000 м дымка 10/10 300 м
[St]
+9.9 +9.0 94 +7 +7 по сезону 1014.6 1009.0
06 14.06 Ю 8-11
{13}
4000 м дымка 10/10 300 м
[St]
+10.2 +9.5 95 +6 +6 по сезону 1013.5 1007.9
09 14.06 Ю 5-9
{11}
2000 м дымка 10/10 300 м
[St]
+9.9 +9.5 97 +7 +7 по сезону 1013.8 1008.2 +10.5
12 14.06 Ю 4-8
{10}
2000 м слаб. морось 10/10 300 м
[St]
+10.0 +9.9 99 +7 +7 по сезону 1014.9 1009.3
15 14.06 Ю 6-8
{11}
200 м слаб. морось {туман} туман ?/? +10.2 +10.2 100 +7 +7 по сезону 1014.5 1008.9
18 14.06 Ю 4-7
{11}
500 м туман ?/? +10.1 +10.1 100 +7 +7 по сезону 1013.8 1008.2
21 14.06 Ю 3-7
{8}
500 м туман ?/? +10.3 +10.3 100 +8 +8 по сезону 1014.7 1009.1 +9.8 0.6
00 15.06 Ю 2-4
{8}
2000 м дымка {туман} 10/10 300 м
[St]
+10.4 +10.4 100 +9 +9 по сезону 1015.4 1009.9
03 15.06 Ю 2-3
{7}
2000 м дымка 10/10 300 м
[St]
+11.2 +10.8 97 +10 +10 по сезону 1015.7 1010.1
06 15.06 Ю 5-7
{9}
2000 м дымка 10/10 300 м
[St]
+10.7 +10.5 99 +8 +8 по сезону 1014.8 1009.2
09 15.06 Ю 1-3
{7}
2000 м дымка 10/8 300 м
[Frnb As op]
+10.5 +10.2 98 +10 +10 тепло 1014.8 1009.2 +11.4
12 15.06 ЮВ 3-6
{7}
2000 м дымка 10/9 300 м
[Frnb As op]
+10.4 +10.4 100 +8 +8 по сезону 1014.6 1009.1
15 15.06 ЮВ 7-10
{11}
2000 м дымка {дождь} 10/10 300 м
[St]
+10.4 +10.4 100 +7 +7 по сезону 1012.3 1006.7
18 15.06 В 6-10
{12}
500 м слаб. дождь {туман} туман ?/? +10.5 +10.5 100 +7 +7 по сезону 1009.3 1003.8
21 15.06 В 8-11
{13}
500 м дождь {туман} туман ?/? +9.7 +9.7 100 +5 +5 по сезону 1007.2 1001.6 +9.7 5
00 16.06 В 10-16
{17}
500 м сильн. дождь {туман} туман ?/? +9.8 +9.8 100 +5 +5 по сезону 1003.0 997.5 +9.4
03 16.06 В 12-18
{20}
500 м слаб. дождь {туман} туман ?/? +10.1 +10.1 100 +5 +5 прохладно 996.8 991.3
06 16.06 СВ 7-15
{20}
500 м слаб. дождь {туман} туман ?/? +9.2 +9.2 100 +5 +5 прохладно 993.1 987.6
09 16.06 СВ 7-13
{15}
500 м сильн. дождь {туман} туман ?/? +9.0 +9.0 100 +5 +5 по сезону 990.2 984.7 +10.3 32
12 16.06 СВ 7-11
{13}
500 м сильн. дождь {туман} туман ?/? +9.0 +9.0 100 +5 +5 по сезону 988.1 982.7
15 16.06 СВ 4-7
{11}
500 м сильн. дождь {туман} туман ?/? +9.9 +9.9 100 +7 +7 по сезону 986.0 980.6
18 16.06 СЗ 3-5
{8}
500 м слаб. дождь {туман} туман ?/? +11.3 +11.3 100 +9 +9 тепло 984.5 979.1
21 16.06 СЗ 8-14
{15}
20 км туман местами {дождь} 10/9 300 м
[Cb cap Ci fib]
+9.8 +8.3 90 +6 +6 по сезону 987.6 982.1 +8.9 25
00 17.06 СЗ 15-22
{26}
20 км {дождь, туман} 8/8 600 м
[Cb cap]
+9.0 +6.5 84 +3 +3 прохладно 991.3 985.8 +8.2
03 17.06 СЗ 14-26
{27}
20 км 8/8 600 м
[Cb cap]
+8.6 +6.2 85 +3 +3 прохладно 993.6 988.1
06 17.06 СЗ 15-25
{27}
10 км слаб. ливневой дождь 10/10 600 м
[Cb cap]
+7.2 +5.5 89 +1 +1 холодно 997.5 991.9
09 17.06 СЗ 12-18
{26}
2000 м слаб. ливневой дождь 10/10 200 м
[Cb cap]
+7.1 +5.5 90 +1 +1 холодно 1000.7 995.2 +10.3 0.0
12 17.06 СЗ 9-15
{20}
20 км {ливн. осадки} 10/10 600 м
[Cb cap]
+7.5 +5.3 86 +2 +2 прохладно 1003.7 998.1
15 17.06 СЗ 5-7
{17}
20 км 10/10 600 м
[Cb cap]
+7.9 +4.8 81 +4 +4 по сезону 1007.0 1001.4
18 17.06 З 3-4
{14}
20 км 10/10 600 м
[Cb cap]
+9.1 +6.2 82 +7 +7 по сезону 1007.3 1001.7
21 17.06 З 8-11
{12}
50 км 4/0
[Ac lent Cc]
+11.2 +6.1 71 +8 +8 по сезону 1008.4 1002.8 +7.0 0.0
00 18.06 З 5-9
{12}
50 км 3/1 600 м
[Cu hum Ac lent Ci fib]
+13.6 +6.7 63 +12 +18 тепло 1009.6 1004.1
03 18.06 Ю 3-4
{9}
50 км 10/10 1000 м
[Sc]
+12.0 +8.2 78 +10 +10 по сезону 1009.6 1004.1
06 18.06 Ю 3-6
{9}
50 км 5/5 1000 м
[Sc]
+13.8 +8.7 71 +13 +17 тепло 1009.6 1004.1
09 18.06 ЮВ 3-4
{8}
50 км 10/8 1000 м
[Sc Ci fib]
+10.4 +9.1 92 +8 +8 по сезону 1010.0 1004.5 +15.4
12 18.06 ЮВ 2-2
{5}
20 км 8/5 600 м
[Cu hum Ci fib]
+8.6 +8.2 97 +7 +7 по сезону 1010.8 1005.2
15 18.06 ЮВ 3-4
{5}
20 км 10/5 600 м
[Cu hum Ci fib]
+9.3 +9.1 99 +7 +7 по сезону 1010.2 1004.6
18 18.06 Ю 1
{4}
4000 м дымка 10/0
[Ac As]
+8.9 +8.7 99 +8 +8 по сезону 1010.0 1004.4
21 18.06 ЮВ 2-2
{3}
500 м туман ?/? +9.6 +9.6 100 +8 +8 по сезону 1010.4 1004.8 +8.4
00 19.06 ЮВ 2-4
{4}
200 м туман ?/? +10.2 +9.8 97 +9 +9 по сезону 1010.8 1005.3
03 19.06 Ю 4-7
{6}
200 м туман ?/? +12.0 +11.9 99 +10 +10 по сезону 1010.3 1004.8
06 19.06 В 3-5
{7}
200 м туман ?/? +11.3 +11.2 99 +9 +9 по сезону 1009.4 1003.9
09 19.06 СВ 3-4
{6}
50 м слаб. морось {туман} туман ?/? +10.5 +10.5 100 +8 +8 по сезону 1009.4 1003.8 +13.2 0.0
12 19.06 СВ 2-3
{5}
200 м слаб. морось {туман} туман ?/? +11.3 +11.3 100 +10 +10 тепло 1010.4 1004.9
15 19.06 В 2-4
{5}
200 м слаб. морось {туман} туман ?/? +10.0 +10.0 100 +8 +8 по сезону 1009.9 1004.3
18 19.06 СВ 3-5
{6}
200 м слаб. морось {туман} туман ?/? +10.1 +10.1 100 +8 +8 по сезону 1009.7 1004.1
21 19.06 СВ 3-5
{5}
200 м слаб. морось {туман} туман ?/? +11.6 +11.6 100 +10 +10 тепло 1009.7 1004.2 +9.6 1
00 20.06 СВ 3-5
{6}
200 м слаб. морось {туман} туман ?/? +10.3 +10.3 100 +8 +8 по сезону 1010.0 1004.4
03 20.06 В 4-6
{6}
200 м слаб. морось {туман} туман ?/? +10.4 +10.4 100 +8 +8 по сезону 1009.9 1004.4

 

Местоположение метеостанции Южно-Курильск (Сахалинская область, Россия): широта 44.02 долгота 145.80 высота над уровнем моря 49 м.

В архиве по умолчанию представлена погода в Южно-Курильске за последнюю неделю. Архивные данные за месяц целиком и за предыдущие месяцы, начиная с января 2011 года, Вы можете получить, выбрав интересующий диапазон дат из раскрывающегося списка и нажав кнопку "Ввод!".


*Определитесь, кто Вы:
робот инопланетянин человек

Внимание! Время в таблицах - всемирное. Для получения местного времени необходимо прибавить поправку, которая равна 11 ч.

Смотрите также архив погоды в соседних городах и на ближайших метеорологических станциях:

Погода в Немуро (Япония) (79 км)
Погода в Малокурильском (Сахалинская область, Россия) (82 км)
Погода в Абасири (Япония) (122 км)
Погода в Кусиро (Япония) (163 км)
Погода в Момбецу (Япония) (199 км)
Погода в Курильске (Сахалинская область, Россия) (209 км)
Погода в Омурайсу (Япония) (234 км)
Погода в Обихиро (Япония) (242 км)
Погода в Китами Сачи (Япония) (275 км)
Погода в Асахикаве (Япония) (277 км)

Пояснения к столбцам:

Ветер - указаны скорость ветра в м/с - средняя за 10 мин, порывы в срок и между сроками (в фигурных скобках) и направление, откуда дует ветер: С - северный, СВ - северо-восточный, В - восточный, ЮВ - юго-восточный, Ю - южный, ЮЗ - юго-западный, З - западный, СЗ - северо-западный.
Видимость - горизонтальная дальность видимости в метрах или километрах. При видимости от 1 до 10 км при отсутствии осадков обычно наблюдается дымка, при ухудшении видимости до 1 км и менее - туман. В сухую погоду видимость может ухудшаться дымом, пылью или мглою.
Явления - указаны атмосферные явления, наблюдавшиеся в срок или в последний час перед сроком; фигурными скобками обозначены явления, наблюдавшиеся между сроками (за 1-3 часа до срока); квадратными скобками обозначены град или гололедные отложения с указанием их диаметра в мм.
Облачность - указаны через наклонную черту общая и нижняя облачность в баллах и высота нижней границы облаков в метрах; квадратными скобками обозначены формы облаков: Ci - перистые, Cs - перисто-слоистые, Cc - перисто-кучевые, Ac - высококучевые, As - высокослоистые, Sc - слоисто-кучевые, Ns - слоисто-дождевые, Cu - кучевые, Cb - кучево-дождевые. Подробнее классификацию облаков см. в Атласе облаков (PDF).
T - Температура воздуха - температура, измеренная на высоте 2 м над землей.
Td - Температура точки росы - температура, при понижении до которой содержащийся в воздухе водяной пар достигнет насыщения.
f - Относительная влажность воздуха - влажноcть воздуха, измеренная на высоте 2 м над землей.
Te - Эффективная температура - температура, которую ощущает одетый по сезону человек в тени. Характеристика душности погоды. При расчете учитывается влияние влажности воздуха и скорости ветра на теплоощущения человека.
Tes - Эффективная температура на солнце - температура, которую ощущает человек, с поправкой на солнечный нагрев. Характеристика знойности погоды. Зависит от высоты солнца над горизонтом, облачности и скорости ветра. Ночью, в пасмурную погоду, а также при ветре 12 м/с и более поправка равна нулю.
P - Атмосферное давление - приведенное к уровню моря атмосферное давление.
Po - Атмосферное давление - измеренное на уровне метеостанции атмосферное давление.
Tmin - Минимальная температура - минимум температуры воздуха на высоте 2 м над землей.
Tmax - Максимальная температура - максимум температуры воздуха на высоте 2 м над землей.
R - Количество осадков - Количество выпавших осадков за период времени, мм. При наведении курсора мыши на число - период времени, за который выпало указанное количество осадков.
R24 - Количество осадков - Количество выпавших осадков за 24 часа, мм.
S - Снежный покров - Высота снежного покрова, см. При наведении курсора мыши на число - состояние снежного покрова и степень покрытия местности в баллах.